Chicago Lansing, IL

2:44 AM CDT on May 23, 2018 (GMT -0500)
Lansing Municipal

Weather History for KIGQ - March, 2013

Change the Weather History Date:

Wednesday, March 20, 2013

  Actual Average (KGYY) Record (KGYY)
Temperature  
Mean Temperature 21 °F -  
Max Temperature 26 °F 47 °F 86 °F (2012)
Min Temperature 16 °F 33 °F 9 °F (1965)
Degree Days  
Heating Degree Days 44    
Moisture  
Dew Point 7 °F    
Average Humidity 54    
Maximum Humidity 81    
Minimum Humidity 41    
Precipitation  
Precipitation 0.00 in - - ()
Sea Level Pressure  
Sea Level Pressure 30.05 in    
Wind  
Wind Speed 12 mph (WNW)    
Max Wind Speed 21 mph    
Max Gust Speed 33 mph    
Visibility 10 miles    
Events Snow    
Averages and records for this station are not official NWS values.
T = Trace of Precipitation, MM = Missing Value Source: NWS Daily Summary

Daily Weather History Graph

Daily Weather History Graph

Search for Another Location

Airport or City:

Astronomy

Mar. 20, 2013 Rise Set
Actual Time 6:53 AM CDT 7:02 PM CDT
Civil Twilight 6:25 AM CDT 7:30 PM CDT
Nautical Twilight 5:53 AM CDT 8:02 PM CDT
Astronomical Twilight 5:20 AM CDT 8:35 PM CDT
Moon 12:33 PM CDT (3/20) 2:36 AM CDT (3/20)
Length of Visible Light 13h 04m
Length of Day
12h 09m
First Quarter, 59% of the Moon is Illuminated
Mar 20
First Quarter
Mar 27
Full
Apr 2
Last Quarter
Apr 10
New
Apr 18
First Quarter

Hourly Weather History & Observations

Time (CDT) Temp. Windchill Dew Point Humidity Pressure Visibility Wind Dir Wind Speed Gust Speed Precip Events Conditions
12:15 AM 26.4 °F 16.0 °F 14.7 °F 61% 30.06 in 10.0 mi WNW 11.5 mph 18.4 mph N/A   Clear
12:35 AM 26.6 °F 15.7 °F 13.5 °F 58% 30.06 in 10.0 mi WNW 12.7 mph 20.7 mph N/A   Mostly Cloudy
12:55 AM 26.6 °F 16.8 °F 12.7 °F 56% 30.04 in 10.0 mi WNW 10.4 mph 21.9 mph N/A   Overcast
1:15 AM 26.4 °F 15.0 °F 12.6 °F 56% 30.05 in 10.0 mi West 13.8 mph 18.4 mph N/A   Overcast
1:35 AM 26.6 °F 15.2 °F 12.2 °F 55% 30.05 in 10.0 mi West 13.8 mph 17.3 mph N/A   Overcast
1:55 AM 26.4 °F 17.3 °F 12.4 °F 55% 30.05 in 10.0 mi WNW 9.2 mph 16.1 mph N/A   Overcast
2:15 AM 26.2 °F 15.8 °F 12.2 °F 55% 30.05 in 10.0 mi WNW 11.5 mph - N/A   Overcast
2:35 AM 25.9 °F 18.2 °F 12.2 °F 56% 30.05 in 10.0 mi WNW 6.9 mph - N/A   Overcast
2:55 AM 25.7 °F 16.4 °F 10.9 °F 54% 30.05 in 10.0 mi WNW 9.2 mph - N/A   Overcast
3:15 AM 24.6 °F 15.1 °F 11.1 °F 57% 30.04 in 10.0 mi WNW 9.2 mph - N/A   Mostly Cloudy
3:35 AM 23.7 °F 12.6 °F 9.9 °F 56% 30.04 in 10.0 mi WNW 11.5 mph 18.4 mph N/A   Scattered Clouds
3:55 AM 22.8 °F 14.5 °F 9.5 °F 57% 30.04 in 10.0 mi WNW 6.9 mph - N/A   Clear
4:15 AM 22.1 °F 10.6 °F 8.2 °F 55% 30.04 in 10.0 mi WNW 11.5 mph 16.1 mph N/A   Clear
4:35 AM 21.6 °F 11.3 °F 7.2 °F 54% 30.03 in 10.0 mi WNW 9.2 mph - N/A   Clear
4:55 AM 21.0 °F 9.3 °F 7.3 °F 56% 30.03 in 10.0 mi WNW 11.5 mph - N/A   Clear
5:15 AM 20.3 °F 10.6 °F 6.6 °F 56% 30.04 in 10.0 mi NW 8.1 mph - N/A   Clear
5:35 AM 19.4 °F 6.6 °F 7.5 °F 60% 30.04 in 10.0 mi WNW 12.7 mph 20.7 mph N/A   Clear
5:55 AM 19.0 °F 7.5 °F 7.2 °F 60% 30.04 in 10.0 mi WNW 10.4 mph - N/A   Clear
6:15 AM 18.3 °F 5.9 °F 6.8 °F 61% 30.05 in 10.0 mi WNW 11.5 mph 17.3 mph N/A   Clear
6:35 AM 17.6 °F 3.7 °F 6.8 °F 63% 30.06 in 10.0 mi WNW 13.8 mph 20.7 mph N/A   Clear
6:55 AM 17.1 °F 4.3 °F 6.4 °F 63% 30.07 in 10.0 mi NW 11.5 mph 19.6 mph N/A   Clear
7:15 AM 16.5 °F 4.3 °F 6.4 °F 65% 30.08 in 10.0 mi WNW 10.4 mph - N/A   Clear
7:35 AM 16.7 °F 5.3 °F 6.1 °F 63% 30.08 in 10.0 mi WNW 9.2 mph 18.4 mph N/A   Clear
7:55 AM 17.6 °F 3.7 °F 6.8 °F 63% 30.08 in 10.0 mi West 13.8 mph 17.3 mph N/A   Clear
8:15 AM 16.7 °F 3.8 °F 4.8 °F 60% 30.08 in 10.0 mi WNW 11.5 mph 21.9 mph N/A   Clear
8:35 AM 16.9 °F 1.2 °F 4.5 °F 58% 30.08 in 10.0 mi West 17.3 mph 24.2 mph N/A   Clear
8:55 AM 17.2 °F 3.3 °F 4.1 °F 56% 30.08 in 10.0 mi WNW 13.8 mph 20.7 mph N/A   Clear
9:15 AM 18.1 °F 4.4 °F 4.3 °F 55% 30.09 in 10.0 mi NW 13.8 mph 20.7 mph N/A   Clear
9:35 AM 18.5 °F 5.5 °F 4.1 °F 54% 30.08 in 10.0 mi WNW 12.7 mph 18.4 mph N/A   Clear
9:55 AM 19.6 °F 4.3 °F 3.9 °F 51% 30.08 in 10.0 mi West 18.4 mph 21.9 mph N/A   Clear
10:15 AM 19.4 °F 5.5 °F 3.0 °F 49% 30.08 in 10.0 mi West 15.0 mph 20.7 mph N/A   Clear
10:35 AM 20.7 °F 7.6 °F 3.2 °F 47% 30.08 in 10.0 mi WNW 13.8 mph - N/A   Clear
10:55 AM 20.8 °F 7.3 °F 2.7 °F 45% 30.08 in 10.0 mi West 15.0 mph 26.5 mph N/A   Clear
11:15 AM 21.6 °F 9.3 °F 3.6 °F 46% 30.08 in 10.0 mi WNW 12.7 mph 23.0 mph N/A   Clear
11:35 AM 22.1 °F 8.5 °F 2.8 °F 43% 30.08 in 10.0 mi WNW 16.1 mph 26.5 mph N/A   Clear
11:55 AM 23.0 °F 8.7 °F 3.9 °F 44% 30.07 in 10.0 mi West 18.4 mph 25.3 mph N/A   Clear
12:15 PM 23.2 °F 9.8 °F 3.6 °F 43% 30.07 in 10.0 mi West 16.1 mph 26.5 mph N/A   Clear
12:35 PM 23.4 °F 9.6 °F 4.3 °F 44% 30.07 in 10.0 mi WNW 17.3 mph 28.8 mph N/A   Clear
12:55 PM 23.9 °F 9.5 °F 4.3 °F 43% 30.06 in 10.0 mi West 19.6 mph 33.4 mph N/A   Scattered Clouds
1:15 PM 24.3 °F 10.4 °F 4.6 °F 43% 30.06 in 10.0 mi West 18.4 mph 26.5 mph N/A   Scattered Clouds
1:35 PM 24.4 °F 12.4 °F 3.7 °F 41% 30.05 in 10.0 mi NW 13.8 mph 19.6 mph N/A   Scattered Clouds
1:55 PM 25.0 °F 14.2 °F 4.8 °F 42% 30.05 in 10.0 mi WNW 11.5 mph 25.3 mph N/A   Scattered Clouds
2:15 PM 26.2 °F 12.2 °F 5.5 °F 41% 30.04 in 10.0 mi West 20.7 mph 27.6 mph N/A   Mostly Cloudy
2:35 PM 24.3 °F 10.0 °F 4.6 °F 43% 30.04 in 10.0 mi West 19.6 mph 27.6 mph N/A   Mostly Cloudy
2:55 PM 25.5 °F 11.3 °F 5.2 °F 42% 30.03 in 10.0 mi West 20.7 mph 24.2 mph N/A   Scattered Clouds
3:15 PM 23.0 °F 10.1 °F 5.4 °F 47% 30.02 in 10.0 mi WNW 15.0 mph 23.0 mph N/A   Scattered Clouds
3:35 PM 24.4 °F 11.9 °F 6.4 °F 46% 30.02 in 10.0 mi WNW 15.0 mph 21.9 mph N/A   Clear
3:55 PM 24.6 °F 11.7 °F 5.7 °F 45% 30.02 in 10.0 mi West 16.1 mph 24.2 mph N/A   Mostly Cloudy
4:15 PM 24.8 °F 13.4 °F 6.4 °F 46% 30.02 in 10.0 mi WNW 12.7 mph 23.0 mph N/A   Overcast
4:35 PM 24.1 °F 12.0 °F 6.1 °F 46% 30.02 in 10.0 mi WNW 13.8 mph 26.5 mph N/A   Overcast
4:55 PM 24.3 °F 10.8 °F 6.4 °F 47% 30.02 in 10.0 mi West 17.3 mph 26.5 mph N/A   Overcast
5:15 PM 23.7 °F 12.6 °F 6.6 °F 48% 30.02 in 10.0 mi WNW 11.5 mph 20.7 mph N/A   Overcast
5:35 PM 23.7 °F 13.3 °F 6.6 °F 48% 30.02 in 10.0 mi WNW 10.4 mph 21.9 mph N/A   Overcast
5:55 PM 23.4 °F 10.1 °F 6.4 °F 48% 30.02 in 10.0 mi WNW 16.1 mph 26.5 mph N/A   Overcast
6:15 PM 23.0 °F 9.6 °F 7.3 °F 51% 30.03 in 10.0 mi West 16.1 mph 23.0 mph N/A   Overcast
6:35 PM 23.0 °F 11.7 °F 7.9 °F 52% 30.03 in 10.0 mi WNW 11.5 mph 21.9 mph N/A   Overcast
6:55 PM 22.8 °F 11.5 °F 8.8 °F 55% 30.03 in 10.0 mi WNW 11.5 mph 17.3 mph N/A   Overcast
7:15 PM 22.5 °F 10.5 °F 10.2 °F 59% 30.03 in 10.0 mi NW 12.7 mph - N/A   Overcast
7:35 PM 21.7 °F 12.3 °F 13.1 °F 69% 30.03 in 5.0 mi WNW 8.1 mph - N/A Snow Light Snow
7:55 PM 21.7 °F 10.8 °F 10.9 °F 63% 30.03 in 10.0 mi WNW 10.4 mph - N/A Snow Light Snow
8:15 PM 22.1 °F 10.0 °F 8.2 °F 55% 30.04 in 10.0 mi NW 12.7 mph 20.7 mph N/A   Overcast
8:35 PM 21.7 °F 10.2 °F 8.6 °F 57% 30.04 in 10.0 mi NW 11.5 mph 17.3 mph N/A   Overcast
8:55 PM 21.2 °F 8.3 °F 8.6 °F 58% 30.04 in 10.0 mi NW 13.8 mph 19.6 mph N/A   Overcast
9:15 PM 20.7 °F 8.8 °F 6.6 °F 55% 30.04 in 10.0 mi NW 11.5 mph 19.6 mph N/A   Overcast
9:35 PM 20.3 °F 9.8 °F 6.6 °F 56% 30.04 in 10.0 mi NNW 9.2 mph - N/A   Mostly Cloudy
9:55 PM 20.3 °F 9.8 °F 5.4 °F 52% 30.03 in 10.0 mi NW 9.2 mph 18.4 mph N/A   Scattered Clouds
10:15 PM 20.3 °F 8.3 °F 5.7 °F 53% 30.04 in 10.0 mi NW 11.5 mph - N/A   Mostly Cloudy
10:35 PM 20.3 °F 10.6 °F 7.3 °F 57% 30.04 in 10.0 mi NW 8.1 mph 17.3 mph N/A   Overcast
10:55 PM 19.4 °F 9.5 °F 11.1 °F 70% 30.04 in 7.0 mi NW 8.1 mph - N/A Snow Light Snow
11:15 PM 19.4 °F 7.2 °F 13.1 °F 76% 30.04 in 3.0 mi NW 11.5 mph 19.6 mph N/A Snow Light Snow
11:35 PM 18.3 °F 8.2 °F 13.3 °F 81% 30.04 in 10.0 mi NW 8.1 mph - N/A   Overcast
11:55 PM 18.5 °F 10.4 °F 11.7 °F 75% 30.04 in 10.0 mi NW 5.8 mph - N/A   Overcast